This is the latest recevied weather packets stored in our database for station/object LRSV. If no packets are shown the sender has not sent any weather packets the latest 10 day(s).
| Time | Temp. | Humidity | Pressure | Rain* | Wind** | Luminosity | Snow |
|---|---|---|---|---|---|---|---|
| 1777961900 | 17.22° C | 56% | 1015 hPa | - | - | - | - |
| 1777961001 | 17.22° C | 56% | 1015 hPa | - | - | - | - |
| 1777960100 | 15° C | 59% | 1015 hPa | - | - | - | - |
| 1777959201 | 15° C | 59% | 1015 hPa | - | - | - | - |
| 1777958300 | 16.11° C | 52% | 1015 hPa | - | - | - | - |
| 1777957400 | 16.11° C | 52% | 1015 hPa | - | - | - | - |
| 1777956500 | 12.78° C | 59% | 1015 hPa | - | - | - | - |
| 1777955600 | 12.78° C | 59% | 1015 hPa | - | - | - | - |
| 1777954700 | 15° C | 51% | 1015 hPa | - | - | - | - |
| 1777953800 | 15° C | 51% | 1015 hPa | - | - | - | - |
| 1777952900 | 13.89° C | 48% | 1014 hPa | - | - | - | - |
| 1777952000 | 13.89° C | 48% | 1014 hPa | - | - | - | - |
| 1777951100 | 13.89° C | 48% | 1014 hPa | - | - | - | - |
| 1777950200 | 13.89° C | 48% | 1014 hPa | - | - | - | - |
| 1777949300 | 13.89° C | 48% | 1014 hPa | - | - | - | - |
| 1777948400 | 13.89° C | 48% | 1014 hPa | - | - | - | - |
| 1777947500 | 12.78° C | 55% | 1014 hPa | - | - | - | - |
| 1777946600 | 12.78° C | 55% | 1014 hPa | - | - | - | - |
| 1777945700 | 12.78° C | 55% | 1014 hPa | - | - | - | - |
| 1777944800 | 12.78° C | 55% | 1014 hPa | - | - | - | - |
| 1777943900 | 12.78° C | 51% | 1014 hPa | - | - | - | - |
| 1777943001 | 12.78° C | 51% | 1014 hPa | - | - | - | - |
| 1777942100 | 15° C | 45% | 1014 hPa | - | - | - | - |
| 1777941200 | 15° C | 45% | 1014 hPa | - | - | - | - |
| 1777940301 | 12.22° C | 58% | 1014 hPa | - | - | - | - |
* Rain since midnight (hover to see other rain measurements)
** Current wind speed in m/s (hover to see current wind gust speed)